TimeEDT,TemperatureF,Dew PointF,Humidity,Sea Level PressureIn,VisibilityMPH,Wind Direction,Wind SpeedMPH,Gust SpeedMPH,PrecipitationIn,Events,Conditions,WindDirDegrees,DateUTC
12:56 AM,75.9,71.1,85,29.97,10.0,SW,4.6,-,N/A,,Mostly Cloudy,220,2012-10-03 04:56:00
1:56 AM,75.0,71.1,87,29.99,10.0,SW,3.5,-,N/A,,Mostly Cloudy,230,2012-10-03 05:56:00
2:56 AM,75.0,71.1,87,29.98,10.0,Calm,Calm,-,N/A,,Mostly Cloudy,0,2012-10-03 06:56:00
3:56 AM,73.9,71.1,91,29.99,10.0,West,3.5,-,N/A,,Scattered Clouds,280,2012-10-03 07:56:00
4:56 AM,73.9,70.0,87,30.00,10.0,Calm,Calm,-,N/A,,Scattered Clouds,0,2012-10-03 08:56:00
5:56 AM,72.0,70.0,93,30.02,10.0,West,3.5,-,N/A,,Mostly Cloudy,260,2012-10-03 09:56:00
6:56 AM,71.6,69.8,94,30.05,10.0,West,3.5,-,N/A,,Mostly Cloudy,270,2012-10-03 10:56:00
7:56 AM,71.1,68.0,90,30.06,10.0,West,4.6,-,N/A,,Mostly Cloudy,270,2012-10-03 11:56:00
8:56 AM,73.0,68.0,84,30.09,10.0,West,3.5,-,N/A,,Mostly Cloudy,260,2012-10-03 12:56:00
9:56 AM,75.0,64.9,71,30.11,10.0,Variable,3.5,-,N/A,,Mostly Cloudy,0,2012-10-03 13:56:00
10:56 AM,77.0,64.0,64,30.11,10.0,North,3.5,-,N/A,,Mostly Cloudy,350,2012-10-03 14:56:00
11:56 AM,78.1,64.0,62,30.13,10.0,Calm,Calm,-,N/A,,Mostly Cloudy,0,2012-10-03 15:56:00
12:56 PM,80.1,64.9,60,30.12,10.0,West,3.5,-,N/A,,Mostly Cloudy,260,2012-10-03 16:56:00
1:56 PM,80.1,64.0,58,30.10,10.0,Calm,Calm,-,N/A,,Mostly Cloudy,0,2012-10-03 17:56:00
2:56 PM,80.1,64.0,58,30.09,10.0,Calm,Calm,-,N/A,,Mostly Cloudy,0,2012-10-03 18:56:00
3:56 PM,81.0,64.9,58,30.09,10.0,SW,3.5,-,0.00,Rain,Light Rain,220,2012-10-03 19:56:00
4:56 PM,80.1,64.9,60,30.10,10.0,Calm,Calm,-,0.00,,Mostly Cloudy,0,2012-10-03 20:56:00
5:56 PM,79.0,66.0,64,30.11,10.0,NNW,3.5,-,0.00,,Mostly Cloudy,330,2012-10-03 21:56:00
6:56 PM,77.0,66.0,69,30.12,10.0,NW,3.5,-,N/A,,Mostly Cloudy,320,2012-10-03 22:56:00
7:56 PM,75.9,68.0,76,30.14,10.0,Calm,Calm,-,N/A,,Mostly Cloudy,0,2012-10-03 23:56:00
8:56 PM,75.0,68.0,79,30.15,10.0,Calm,Calm,-,N/A,,Mostly Cloudy,0,2012-10-04 00:56:00
9:56 PM,73.9,69.1,85,30.18,10.0,West,3.5,-,N/A,,Overcast,270,2012-10-04 01:56:00
10:56 PM,73.0,69.1,87,30.19,10.0,SSW,3.5,-,N/A,,Mostly Cloudy,210,2012-10-04 02:56:00
11:56 PM,71.6,68.0,88,30.20,10.0,Calm,Calm,-,N/A,,Mostly Cloudy,0,2012-10-04 03:56:00